Last updated on Oct. 12, 2018, 12:08 a.m. UTC
1 25170U 98010B 18284.38011863 .17267319 -95414-6 34463-3 0 9995 2 25170 86.3769 145.8182 0033126 357.4376 2.7592 16.43394840 81225
Satellite is not in orbit.
PulseSat is the new satellites software and hardware trackering solution by Pulsely. Satellite Two Line Element Set source: US Air Force Space Command